User: anonymous   Login
Location: Unspecified
(0.0000°N, 0.0000°E)
Time: 19:16:48
(UTC+00:00)
Language:

NOAA 18 - Orbit

View from above orbital plane
View from above orbital plane
View from above satellite
View from above satellite

Ground track
Ground track

The orbit data is extracted from the following two-line orbital elements,

1 28654U 05018A   22225.50212831  .00000137  00000-0  97919-4 0  9994
2 28654  98.9463 295.8855 0014649 166.4447 193.7121 14.12763729888037
Epoch (UTC): 13 August 2022 12:03:03
Eccentricity: 0.0014649
inclination: 98.9463°
perigee height: 839 km
apogee height: 860 km
right ascension of ascending node: 295.8855°
argument of perigee: 166.4447°
revolutions per day: 14.12763729
mean anomaly at epoch: 193.7121°
orbit number at epoch: 88803

The dashed part of the orbit path shows where the satellite is in the earth's shadow,  

DLR